Showing default

EXPLORER 27, 1328

Orbit data source: Space-Track

EXPLORER 27, 1328 is a payload satellite owned by GSFC (US) in LEO that was launched on Thu, 29 Apr 1965 UTC via an SCOUT X-4 launch vehicle from the Wallops Island (WLPIS). Payload-class satellites include a variety of spacecraft equipped with specific instruments for various scientific and technological missions. These include communications satellites like Starlink; space stations such as the ISS; scientific satellites like the Hubble; Earth observation satellites from companies like Planet Labs, Umbra, and HawkEye 360; GPS; miniature CubeSats for education and research; and military/defense satellites.

Loading next visibility...
Identifier
1328, 1965-032A
Orbit
LEO
Country
Flag of USUS
Related business
Manufacturer
APL
Mission
Civil Science
Bus & Motor
TRANSIT 5, Unknown motor
Mass
55 kg wet, 55 kg dry
Launch date (UTC)
1965-04-29 (60 years ago)
Launch vehicle
SCOUT X-4
Launch site
Wallops Island (WLPIS)
Object type
Payload
Rocket body
Debris
Shape & HBR
Oct Cyl + 4 Pan + 4 Rod, 2.3 m
Radar Cross Section
2.996 m², Large (>1 m²)

Expand to show TLE details & history
Last TLE update: 14 hours ago

TLE from 14 hours ago
0 EXPLORER 27
1 01328U 65032A   25242.89702229  .00000063  00000-0  22111-3 0  9993
2 01328  41.1836 179.3565 0244600 236.4998 121.2163 13.38896148949427
Epoch: 2025-08-30T21:31Z
TLE epoch observation values (Epoch: 2025-08-30T21:31:42.725Z)
Latitude
-0.00001°
Longitude
-122.89627°
Altitude
1,211.173 km
Speed
7.203 km/s
True Right ascension
11h 57m 25s
True Declination
0° 00' 00"
Sunlit
Object was in daylight at epoch
Visualization orbit readout
Latitude
Unknown
Longitude
Unknown
Altitude
Unknown
Speed
Unknown
Apparent Right ascension
Unknown
Apparent Declination
Unknown
Sunlit
N/A
Visualization observer readout
Local Sidereal Time
03:01:04
Azimuth
Unknown
Elevation
Unknown
Doppler factor
Unknown
Orbital elements
Apogee altitude
1,298.749 km
Perigee altitude
932.163 km
Semi-major axis
7,493.593 km
Eccentricity
0.02446
Inclination
41.1836°
RAAN
179.3565°
Arg. of periapsis
236.4998°
True anomaly
123.57532°
Mean anomaly
121.2163°
Eccentric anomaly
122.39959°
Mean motion
3.34586 °/min
Orbital period
107.6 mins
BSTAR
0.00022111
Loading maneuver chart data...
Computing Atmospheric mass density...
Loading historical data...
Loading historical data...
Loading historical data...
Loading historical data...
Loading historical data...
Loading historical data...
Loading historical data...
Other satellites on launch #32 in the year 1965 (1965-04-29 UTC)

Documentation

Showing up to 5 results
|